Regional Weather Roundup
Issued by NWS Northern Indiana

Home | Current Version | Previous Version | Text Only | Print | Product List | Glossary On
Versions: 1 2 3 4 5 6 7 8 9 10 11 12 13 14 15 16 17 18 19 20 21 22 23 24 25 26 27 28 29 30 31 32 33 34 35 36 37 38 39 40 41 42 43 44 45 46 47 48 49 50
059
ASUS43 KIWX 292210
RWRIWX

KIWX WEATHER ROUNDUP
NATIONAL WEATHER SERVICE NORTHERN INDIANA
600 PM EDT WED MAR 29 2017

NOTE: "FAIR" INDICATES FEW OR NO CLOUDS BELOW 12,000 FEET WITH NO
SIGNIFICANT WEATHER AND/OR OBSTRUCTIONS TO VISIBILITY.

* THESE STATIONS ARE NOT UNDER NWS QUALITY CONTROL. THEY ALSO MAY NOT
  REPORT WEATHER SUCH AS PRECIPITATION OR FOG.

INZ001>027-292300-
NORTHERN INDIANA

CITY           SKY/WX    TMP DP  RH WIND       PRES   REMARKS
GARY*          CLOUDY    46  36  66 NE14G26   30.11F
VALPARAISO     LGT RAIN  52  40  63 E16       30.10F
MICHIGAN CITY* CLOUDY    54  34  47 E8        30.12F
LAPORTE*       CLOUDY    53  35  52 E16       30.14F
KNOX*          CLOUDY    52  10  19 E15       30.14F
SOUTH BEND     CLOUDY    53  32  44 E13       30.19R
ELKHART*       SUNNY     54  32  43 E12       30.19R
GOSHEN         CLOUDY    54  32  43 E12       30.20R
MONTICELLO*    CLOUDY    55  38  52 E15       30.07F
LOGANSPORT*    CLOUDY    55  37  50 E17       30.11F
ROCHESTER*     CLOUDY    57  37  47 E14       30.15F
WARSAW*        CLOUDY    52  34  50 E9        30.19R
ANGOLA*        SUNNY     52  37  58 E13       30.19F
FORT WAYNE     CLOUDY    55  33  43 E21       30.17S
HUNTINGTON*    MOSUNNY   55  37  50 E8        30.15F
PERU/GRISSOM   CLOUDY    56  40  55 NE18      30.11S
MARION*        CLOUDY    56  39  52 E18       30.13F

$$
INZ028>050-292300-
CENTRAL INDIANA

CITY           SKY/WX    TMP DP  RH WIND       PRES   REMARKS
LAFAYETTE      CLOUDY    55  41  59 E23G31    30.03F
KOKOMO*        PTSUNNY   56  43  61 E16       30.11F
MUNCIE*        SUNNY     59  42  53 E16       30.11F
INDIANAPOLIS   CLOUDY    60  43  53 E15       30.05F

$$
MIZ043>046-050>051-056>058-064>065-071>073-077>080-292300-
SOUTHWEST LOWER MICHIGAN

CITY           SKY/WX    TMP DP  RH WIND       PRES   REMARKS
BATTLE CREEK   CLOUDY    52  33  48 NE12      30.20F
BENTON HARBOR  CLOUDY    54  32  43 E8        30.18S
COLDWATER*     MOSUNNY   53  31  43 E12       30.18F
HILLSDALE*     CLOUDY    50  32  50 E9        30.18F
HOLLAND        CLOUDY    53  33  46 E10       30.22F
GRAND RAPIDS   CLOUDY    52  36  54 E13       30.21F
KALAMAZOO      CLOUDY    54  30  40 E8        30.20F
STURGIS*       PTSUNNY   53  33  47 E10       30.19R
THREE RIVERS*  CLOUDY    54  32  43 E9        30.20R

$$
OHZ001>008-015>018-024>025-292300-
NORTHWEST OHIO

CITY           SKY/WX    TMP DP  RH WIND       PRES   REMARKS
WAUSEON*       FAIR      52  32  46 E17       30.21F
DEFIANCE       CLOUDY    51  30  44 E13       30.20F
FINDLAY        CLOUDY    54  31  41 NE16      30.18F
TOLEDO EXPRESS PTSUNNY   50  30  46 E13       30.22F
TOLEDO METCALF MOSUNNY   51  31  46 E10       30.25S
LIMA           MOSUNNY   56  40  55 E14G21    30.16F

$$
AND FOR LAKE MICHIGAN COASTAL AND OPEN LAKE BUOY OBSERVATIONS

STATION/POSITION TEMP    WIND        PRES    VSBY  WAVE
                 AIR SEA DIR/SP/G                  HT/PER
                 (F)     (DEG/KT/KT) (MB)    (MI)  (FT/S)
CALUMET HARBOR    42      40/ 14/ 17 1019.1F
MICHIGAN CITY     42      50/ 11/ 12   N/A
BURNS HARBOR      42      80/ 13/ 16 1020.3F

$$
&&




USA.gov is the U.S. government's official web portal to all federal, state and local government web resources and services.